Flag for Canada Weather past 2 weeks in Ottawa, Ontario, Canada

25 °F


Feels Like: 15 °F
Forecast: 22 / 32 °F
Wind: 9 mph from Northwest

Location: Ottawa Int'L. Ont.

Current Time: Nov 28, 2015 at 8:30:35 AM

Latest Report: Nov 28, 2015 at 8:00 AM

Visibility: 15 mi

Pressure: 30.37 "Hg

Humidity: 86%

Dew point: 21 °F

Location of OttawaLocation

Historic Weather in Ottawa — Graph


Ottawa temperature yesterday

Maximum temperature yesterday: 55 °F (at 2:00 AM)
Minimum temperature yesterday: 32 °F (at 8:00 PM)
Average temperature yesterday: 48 °F

Past Weeks' High & Low Weather Summary

High61 °F (Nov 19, 10:00 AM)100% (Nov 13, 7:00 AM)30.72 "Hg (Nov 13, 7:00 AM)
Low18 °F (Nov 23, 7:00 AM)39% (Nov 20, 4:00 PM)29.33 "Hg (Nov 13, 7:00 AM)
Average37 °F75%30.18 "Hg
* Reported Nov 13 7:00 AM — Nov 28 7:00 AM, Ottawa, Weather by CustomWeather, © 2015

Note: Actual official high and low records may vary slightly from our data, if they occured in-between our weather recording intervals... More about our weather records


Ottawa weather history for previous 24 hours

Time TempWeatherWind HumidityBarometerVisibility
7:00 AM
Sat, Nov 28
27 °FOvercast.9 mph80%30.37 "Hg15 mi
6:00 AM27 °FOvercast.8 mph80%30.36 "Hg15 mi
5:00 AM27 °FOvercast.14 mph80%30.36 "Hg15 mi
4:00 AM28 °FOvercast.10 mph80%30.35 "Hg15 mi
3:00 AM30 °FOvercast.15 mph80%30.36 "Hg15 mi
2:00 AM30 °FMostly cloudy.12 mph86%30.34 "Hg15 mi
1:00 AM30 °FOvercast.10 mph86%30.32 "Hg15 mi
12:00 AM32 °FOvercast.13 mph80%30.33 "Hg15 mi
11:00 PM
Fri, Nov 27
32 °FMostly cloudy.13 mph87%30.30 "Hg15 mi
10:00 PM32 °FMostly cloudy.12 mph87%30.29 "Hg15 mi
9:00 PM32 °FMostly cloudy.12 mph93%30.27 "Hg15 mi
8:00 PM32 °FLight snow. Mostly cloudy.15 mph93%30.26 "Hg10 mi
7:00 PM34 °FLight rain. Fog.13 mph93%30.24 "Hg5 mi
6:00 PM36 °FLight rain. Overcast.17 mph93%30.20 "Hg10 mi
5:00 PM37 °FLight rain. Mostly cloudy.16 mph100%30.17 "Hg10 mi
4:00 PM41 °FLight rain. Mostly cloudy.18 mph87%30.12 "Hg10 mi
3:00 PM50 °FLight rain. More clouds than sun.18 mph88%30.09 "Hg10 mi
2:00 PM50 °FLight rain. Overcast.14 mph94%30.08 "Hg10 mi
1:00 PM52 °FLight rain. Overcast.16 mph82%30.10 "Hg10 mi
12:00 PM54 °FLight rain. Overcast.18 mph72%30.10 "Hg10 mi
11:00 AM55 °FLight rain. Overcast.20 mph67%30.13 "Hg10 mi
10:00 AM55 °FMostly cloudy.22 mph63%30.14 "Hg15 mi
9:02 AM55 °FLight rain. Overcast.23 mph67%30.15 "Hg15 mi
8:00 AM54 °FMostly cloudy.20 mph67%30.17 "Hg15 mi
Weather by CustomWeather, © 2015

See weather overviewHow to use our weather pages